{"data":{"norad_id":45773,"intl_designator":"2020-038AV","name":"STARLINK-1482","alt_names":[],"object_type":"PAYLOAD","status":"ACTIVE","operator":null,"country":"US","launch_date":"2020-06-13","launch_site_code":"AFETR","launch_vehicle":null,"mission":null,"orbit_class":"UNKNOWN","rcs_meters":null,"size_class":null,"mass_kg":null,"dimensions":null,"purposes":["comms"],"wikipedia_slug":null,"has_3d_model":false,"image_url":null,"decayed_at":null,"tle_current":{"epoch":"2026-09-19T19:19:41.319840Z","epoch_age_seconds":78253,"freshness":"FRESH","line1":"1 45773U 20038AV  26262.80533935  .00048138  00000+0  96199-3 0  9993","line2":"2 45773  53.1545 358.0458 0002785 344.1693  15.9228 15.46352292346724","mean_motion":15.46352292,"eccentricity":0.0002785,"inclination_deg":53.1545,"raan_deg":358.0458,"arg_perigee_deg":344.1693,"mean_anomaly_deg":15.9228,"bstar":0.00096199,"rev_number":34672,"period_min":93.122376281898,"perigee_km":425.51218153727,"apogee_km":429.30286983808,"semimajor_km":6805.5445256877,"source":"CELESTRAK","updated_at":"2026-09-20T09:00:38.458322Z"}}}